Dewpoint
72 72 73 74 74 75 75 76 75 76 76 76 76 76 76 75 75 76 76 76 77 76 76 76 76 76 76 76 75 75 74 73 74 75 74 75 76 76 77 76 76 77 77 78 77 77 77 77 77 77 77 77 77 77 77 76 76 76 76 76 76 76 76 76 76 75 75 74 73 73 73 72 73 72 71 72 71 70 71 72 73 72 72 71 70
72 73 74 74 75 75 76 75 75 76 76 76 76 76 75 75 76 76 76 76 77 76 76 76 76 76 76 76 76 75 74 74 74 75 76 76 77 77 77 76 76 77 77 77 77 77 77 77 77 77 77 77 76 76 76 76 76 76 75 75 75 75 76 76 76 75 75 74 73 71 72 72 72 72 72 72 71 71 71 72 72 72 72 71 71
72 74 74 74 75 75 76 75 75 75 75 76 76 75 76 75 76 76 76 77 77 76 76 76 76 76 76 76 75 75 74 75 75 75 76 76 77 77 77 76 77 77 77 77 77 77 77 77 77 76 77 76 76 76 76 76 76 76 75 74 74 73 74 76 75 75 75 75 74 74 74 75 71 71 71 70 71 71 71 72 72 72 70 71 70
73 73 74 75 75 74 76 76 75 75 75 76 76 76 76 75 75 76 76 77 76 76 76 76 76 76 75 75 75 75 75 75 75 75 76 76 77 77 77 77 77 76 76 77 77 77 77 76 77 77 76 77 76 76 76 76 76 76 75 75 74 73 74 75 75 75 75 74 75 75 75 72 73 74 70 71 71 71 71 71 72 71 70 71 71
72 73 74 75 75 74 75 76 75 76 76 76 76 75 76 76 76 76 75 76 76 76 76 76 75 75 75 75 75 75 75 75 75 76 76 76 77 77 77 77 77 76 76 76 77 77 76 76 76 76 76 76 77 76 76 76 76 76 75 75 75 75 75 75 75 75 75 74 75 75 73 72 72 75 69 70 70 70 71 71 71 71 71 71 71
72 72 73 73 75 75 74 75 76 76 76 76 76 75 75 76 76 76 76 76 76 76 76 76 75 75 75 75 75 75 75 75 75 75 76 76 76 76 76 76 76 76 76 76 76 76 76 76 76 76 75 76 77 76 76 76 75 76 75 75 75 75 75 75 75 75 75 75 75 73 73 73 73 73 70 70 70 71 71 71 72 71 71 71 72
72 73 74 74 74 74 75 75 75 75 76 75 75 76 76 76 76 77 76 76 76 76 76 76 76 75 75 75 75 75 75 75 75 76 76 76 76 76 76 76 76 76 76 76 76 76 75 75 75 75 75 75 75 77 77 76 75 76 76 75 74 75 75 75 75 75 75 75 73 73 73 73 73 74 72 70 71 71 71 71 72 71 71 71 71
74 74 74 74 74 74 74 74 75 74 75 76 75 75 76 77 77 77 76 76 76 76 76 76 76 76 75 75 75 75 76 76 76 76 76 76 76 76 76 76 76 76 76 76 76 75 75 74 74 75 75 74 75 76 76 76 75 75 75 73 73 74 74 74 74 73 74 73 72 73 73 73 72 73 75 70 71 72 71 72 72 72 71 71 71
74 75 75 74 74 74 74 75 75 75 74 75 76 76 77 77 77 77 76 76 76 76 76 76 75 75 75 75 75 75 75 75 75 75 75 75 75 75 75 76 76 76 76 76 76 75 75 74 74 74 74 73 74 75 76 76 76 75 75 73 74 74 74 74 74 74 74 72 73 73 73 72 72 72 74 70 70 71 72 72 73 72 72 71 71
74 74 75 75 75 75 76 77 77 77 76 76 76 77 77 77 77 77 77 76 76 77 76 76 75 75 75 75 75 75 75 75 75 75 75 76 76 75 76 75 75 75 75 75 75 75 74 74 73 73 72 72 74 74 75 76 76 76 75 74 75 74 74 74 74 73 74 73 73 73 72 75 73 72 73 70 71 71 71 73 73 72 71 71 71
74 75 76 75 75 75 76 76 76 76 75 76 76 76 77 77 77 77 77 76 76 76 76 76 76 76 76 76 76 75 76 76 76 76 76 76 76 76 76 75 75 75 74 75 75 74 74 74 74 73 73 73 72 73 75 76 76 75 75 75 74 74 74 75 74 71 73 73 73 72 74 74 73 73 75 70 71 71 71 72 73 72 72 71 71
75 76 76 76 76 76 76 76 76 76 76 75 76 76 76 76 76 76 76 76 76 76 76 76 76 76 76 76 76 76 76 76 76 76 76 76 76 76 76 75 75 75 74 74 74 74 74 74 73 74 75 75 75 74 74 76 75 75 75 74 74 74 74 75 73 72 73 73 73 73 72 74 73 74 73 71 71 71 71 71 73 72 73 71 71
75 75 76 75 75 76 76 76 76 76 76 75 75 76 76 76 76 76 76 76 76 76 76 76 76 76 76 76 76 76 76 76 76 76 76 76 76 76 75 75 74 74 74 74 74 73 73 73 74 73 74 75 76 75 75 76 76 75 75 74 74 75 74 74 73 71 72 73 73 74 73 72 73 75 74 71 72 71 72 71 71 72 72 72 71
74 75 75 75 76 77 76 76 76 76 76 76 76 76 75 75 76 76 76 76 76 76 76 76 76 76 76 76 76 76 76 76 76 76 76 75 75 75 75 75 75 74 74 74 74 74 74 74 74 74 74 74 75 75 75 74 75 75 74 75 74 74 75 74 74 71 72 72 73 73 73 74 73 75 75 71 72 72 73 73 72 72 72 72 71
74 75 75 76 76 76 76 76 75 75 75 75 75 76 76 75 76 76 76 76 76 76 76 76 76 76 76 76 76 76 76 76 75 75 75 75 75 75 75 75 74 74 74 75 75 75 75 74 74 75 75 75 75 75 75 75 75 74 74 73 75 74 73 73 74 72 72 72 73 75 73 74 75 75 74 72 72 71 72 73 72 72 72 72 72
75 75 76 76 76 76 76 76 76 75 75 75 75 75 76 75 75 75 76 76 76 76 76 76 76 76 76 76 76 76 76 75 75 75 75 75 75 74 74 73 73 73 73 74 74 74 74 74 75 75 75 75 76 76 76 76 76 75 75 75 75 74 73 74 73 72 72 72 73 74 75 74 75 76 73 72 72 72 72 72 72 72 72 72 72
75 76 76 76 76 76 76 76 76 76 76 75 76 75 75 75 75 76 76 76 76 76 76 77 76 76 76 76 76 76 76 76 75 75 75 75 74 74 74 74 74 74 73 73 73 73 74 75 76 76 76 76 76 77 77 77 76 77 76 75 74 75 74 74 73 72 71 71 73 73 75 75 76 75 73 72 71 72 72 73 72 72 73 72 72
75 75 76 77 76 76 76 76 76 76 76 76 76 76 76 76 76 76 77 77 77 77 77 77 76 76 76 76 76 76 76 76 75 75 75 75 74 74 74 74 75 75 75 75 75 75 75 75 75 76 76 76 77 77 77 77 77 76 76 77 77 75 74 74 72 73 72 74 74 74 73 76 76 75 73 72 72 72 72 73 73 72 72 72 72
75 75 75 76 76 76 76 76 77 76 76 76 76 76 76 76 76 76 76 77 77 77 77 77 77 77 77 76 76 76 76 75 75 75 75 74 74 74 74 74 74 75 75 75 75 75 75 76 76 76 76 76 76 76 77 77 77 76 76 76 77 76 75 75 72 71 73 73 73 74 73 74 76 75 73 72 72 72 73 73 73 72 72 72 72
75 75 75 76 76 76 77 76 76 76 76 76 76 76 76 77 77 77 77 77 77 77 77 77 77 77 76 76 76 76 75 75 75 74 74 74 74 75 75 75 75 75 75 75 75 76 76 76 77 76 77 76 77 77 77 77 77 76 76 75 76 75 75 73 71 71 72 73 75 74 74 74 76 75 73 73 72 73 73 73 73 73 72 72 72
75 75 75 76 76 76 76 77 76 76 76 76 76 76 76 76 77 77 77 76 76 77 77 76 76 76 76 76 75 75 74 73 73 73 74 75 75 75 75 75 76 76 76 76 76 76 76 76 77 76 76 77 77 77 77 76 76 76 76 75 75 75 73 73 73 73 73 74 75 75 74 74 76 76 74 73 73 73 73 73 73 73 73 72 72
73 74 75 76 76 76 76 76 76 77 77 76 77 76 76 76 76 76 76 76 75 76 75 75 75 75 76 76 76 76 73 72 72 75 74 74 75 75 75 74 75 76 76 76 76 76 76 76 77 77 77 76 77 76 75 75 75 76 76 76 75 72 72 73 72 73 75 74 75 75 75 75 76 76 74 73 73 73 73 73 73 73 73 73 72
72 73 74 76 75 76 76 76 76 77 77 76 77 77 75 75 75 75 76 76 77 76 75 76 75 75 76 76 76 74 73 73 73 75 74 75 74 74 75 75 76 76 75 75 75 76 76 76 77 77 77 77 76 73 72 72 71 74 74 73 73 72 72 72 72 71 72 74 76 76 76 75 76 76 72 73 73 73 73 73 73 73 73 73 72
72 73 73 76 75 75 75 75 76 77 77 77 77 74 75 74 74 76 75 75 76 76 75 75 75 75 76 75 75 74 73 72 76 75 75 75 74 75 75 76 75 75 75 76 76 76 76 75 75 76 77 74 72 71 71 71 71 71 71 71 72 73 73 72 72 71 71 72 73 75 75 74 75 76 73 73 73 73 73 73 73 73 73 73 72
74 73 74 75 76 75 75 75 76 76 77 77 77 76 75 74 75 76 76 76 75 75 75 75 75 74 74 75 74 74 73 73 73 73 72 72 71 71 72 70 70 68 74 69 69 69 71 69 69 72 71 72 72 71 70 70 71 71 71 71 70 71 71 72 72 71 71 71 72 73 75 75 74 75 74 73 73 73 72 73 73 73 73 73 73
73 73 74 74 76 75 74 75 76 77 77 77 77 77 77 74 76 76 76 76 76 75 75 75 74 75 74 75 75 72 72 72 72 71 71 70 70 70 69 70 68 69 72 68 68 68 68 68 69 70 69 70 71 70 70 71 71 71 71 70 70 70 70 71 72 72 72 72 72 73 73 75 74 75 75 74 73 73 72 73 73 73 73 73 73
73 73 74 75 76 75 74 75 76 77 77 77 77 77 77 76 77 77 75 75 75 75 75 74 74 74 75 75 73 72 71 71 71 71 71 70 69 69 69 69 68 68 70 68 67 69 68 68 68 68 69 69 69 70 70 70 70 70 70 70 70 70 70 70 70 71 71 71 72 73 74 75 75 74 74 75 74 73 73 72 73 73 73 73 73
73 73 74 75 76 75 75 75 76 76 77 78 77 77 77 77 77 77 76 77 76 76 76 75 75 75 75 75 75 72 71 71 71 70 70 69 69 68 69 69 69 69 70 68 67 67 68 68 68 68 68 69 69 69 70 70 69 69 69 69 70 70 70 70 70 70 70 70 71 71 72 75 76 75 75 75 74 74 73 73 72 73 73 73 73
72 73 74 75 75 76 75 76 76 76 76 76 76 77 77 77 77 77 77 78 76 76 76 76 75 75 75 75 75 71 71 70 70 70 69 69 68 68 68 68 69 69 69 68 68 67 67 68 68 68 69 69 68 68 69 69 69 68 69 69 70 70 70 70 70 70 70 70 70 71 72 73 76 76 75 75 75 75 74 74 73 72 72 73 73
72 73 74 75 75 76 76 76 76 76 76 76 76 76 77 76 77 77 77 78 77 76 76 76 76 75 74 74 74 72 71 70 70 70 69 69 68 67 68 68 69 69 69 68 69 68 68 68 69 69 69 69 69 68 69 69 69 69 69 69 70 70 70 70 70 70 70 70 69 70 72 73 74 76 76 75 75 75 74 74 74 73 73 72 73
73 73 73 74 75 75 75 76 76 77 76 75 75 76 77 76 76 77 77 77 77 76 76 74 75 76 75 74 73 73 71 70 70 70 69 68 68 68 68 69 68 68 69 69 70 70 69 69 69 69 69 69 69 69 69 69 69 69 70 70 70 70 70 70 70 71 70 70 70 71 71 73 74 74 74 75 74 75 75 74 74 74 73 72 72
72 72 73 74 75 75 75 75 75 76 75 75 76 76 76 76 76 76 77 77 77 75 74 73 75 74 75 74 73 72 73 70 70 70 69 68 68 68 69 69 69 69 70 69 69 70 70 69 69 68 68 69 69 69 69 69 69 70 70 70 71 70 70 70 70 70 71 71 71 72 73 74 73 73 74 75 74 74 74 74 74 74 74 73 72
72 72 73 74 74 75 74 74 75 75 75 74 74 75 75 75 75 76 77 76 75 74 73 72 73 73 74 75 74 72 73 71 70 70 71 69 69 69 70 71 70 70 70 70 70 69 69 68 68 68 67 68 67 67 69 69 70 71 71 71 71 71 70 70 71 70 70 71 72 73 73 74 73 73 73 74 74 74 74 74 74 74 74 73 73
72 73 73 73 74 75 75 74 74 75 75 74 74 74 75 74 75 76 77 75 73 75 75 75 74 73 73 74 74 72 72 71 70 70 70 69 69 70 70 70 70 69 69 69 68 68 67 67 68 66 68 67 65 65 65 66 67 68 68 68 68 68 69 69 70 70 71 71 71 72 73 74 73 73 73 74 73 72 73 73 73 73 75 74 73
72 72 73 73 74 74 75 74 75 74 75 74 74 74 75 75 75 76 76 75 74 74 72 73 74 74 74 74 74 73 73 71 71 70 70 69 69 70 70 70 70 69 68 68 67 66 66 66 68 65 64 64 64 66 65 65 66 67 67 68 67 67 68 69 70 70 71 71 71 72 72 74 72 71 72 72 72 72 72 72 73 73 73 75 74
71 72 73 73 74 74 75 73 75 74 74 75 74 75 75 75 76 78 75 74 74 73 73 74 74 75 76 75 74 73 73 72 71 70 69 69 69 69 69 69 69 68 67 67 66 65 65 65 66 65 63 64 64 64 64 65 65 66 66 66 67 68 68 69 70 70 71 71 71 71 71 73 74 71 71 71 72 72 72 73 72 71 72 74 74
71 72 73 73 73 73 75 73 74 74 74 75 75 74 74 74 74 76 75 73 73 73 73 74 74 75 75 75 74 74 73 72 72 71 70 69 69 69 68 68 69 67 67 66 66 66 65 65 65 66 64 63 64 64 64 64 65 65 65 66 66 67 67 67 67 68 69 69 70 70 71 71 73 75 73 72 72 71 72 71 72 73 73 73 74
71 72 73 73 73 73 74 73 73 74 74 75 74 73 74 73 74 75 76 75 73 73 72 72 72 73 73 73 72 71 71 70 70 70 70 70 69 68 68 68 68 67 66 65 65 65 65 65 65 64 66 65 64 64 64 64 65 65 66 66 67 67 67 67 67 69 68 68 68 68 69 70 71 72 74 74 73 72 72 73 73 73 73 73 72
71 72 73 73 73 73 74 74 73 74 74 74 74 74 74 73 72 73 73 73 74 74 73 73 73 72 72 72 70 70 70 70 70 70 69 69 69 68 68 68 68 67 66 66 66 66 67 66 66 66 66 66 65 65 65 65 66 66 67 67 67 67 67 67 68 67 67 67 68 69 69 69 70 70 71 73 72 72 72 72 72 73 74 74 74
71 72 73 72 72 72 73 73 74 74 74 74 74 73 73 73 72 70 70 72 71 73 72 72 72 71 72 71 70 70 71 71 70 69 69 70 68 68 68 68 67 67 67 67 67 67 67 67 67 66 66 66 67 67 66 66 67 67 67 67 67 67 67 67 67 67 68 67 67 68 68 68 68 69 70 71 74 72 72 72 73 74 73 72 73
71 72 72 72 72 72 73 73 74 74 74 74 73 73 72 70 70 70 70 70 70 71 72 73 73 72 71 71 71 70 71 71 71 70 69 71 69 68 68 68 68 69 68 68 68 68 68 68 67 68 68 67 67 67 67 68 67 66 65 64 64 65 67 66 66 66 67 67 67 68 68 68 69 70 71 72 72 72 70 70 70 71 71 70 70
70 71 72 72 72 72 73 73 74 74 74 74 74 73 72 71 71 71 70 69 70 71 70 72 73 72 72 70 71 70 70 70 71 70 70 71 71 70 70 70 70 69 69 69 69 70 69 68 68 68 68 68 68 67 67 67 66 64 63 64 63 63 64 65 65 65 65 66 67 67 68 69 69 70 72 71 70 70 70 70 70 71 71 70 69
70 71 72 72 72 72 74 74 74 74 74 74 74 73 72 72 71 71 71 70 71 72 71 73 74 72 73 72 71 70 70 70 71 71 71 71 71 71 71 71 71 71 71 70 70 70 69 69 69 68 68 69 69 69 68 67 64 63 63 62 60 61 62 62 63 64 64 65 68 66 67 66 67 68 70 70 70 71 71 70 71 71 71 70 70
70 70 71 71 72 72 73 75 75 74 74 74 75 73 73 72 71 72 72 72 71 74 73 73 74 74 73 72 71 71 71 70 71 71 71 71 72 72 72 72 72 72 72 71 71 70 70 69 69 69 69 68 67 65 67 66 67 65 61 60 60 62 60 58 61 63 65 64 65 65 67 65 65 66 68 68 70 70 70 71 71 71 70 70 70
70 70 71 71 72 72 73 75 75 75 75 75 75 74 73 72 73 73 73 72 72 71 70 69 72 74 73 72 71 70 70 70 71 71 72 71 72 72 72 72 72 71 71 71 70 70 69 69 69 69 69 68 66 64 64 66 66 66 64 62 60 59 59 61 62 60 63 64 65 65 66 64 64 65 66 67 67 68 69 69 69 69 70 71 71
69 70 71 71 72 72 73 74 75 76 75 75 76 74 74 71 71 71 70 68 69 68 67 66 67 71 72 73 72 72 71 71 71 71 72 72 71 71 70 69 69 69 70 69 68 66 66 66 67 67 67 67 64 63 63 65 67 69 68 65 62 59 60 63 61 56 62 63 64 64 65 63 63 64 65 65 65 65 67 66 67 68 69 70 70
69 70 71 72 72 72 73 74 75 75 75 75 75 74 73 71 71 70 70 70 69 68 66 65 68 67 67 69 71 71 70 69 69 70 71 70 68 68 67 67 68 67 70 67 67 67 66 66 67 66 66 67 65 62 62 65 68 67 67 67 67 66 64 62 59 60 57 58 61 61 61 61 62 63 64 63 64 64 65 66 65 66 67 69 70
70 70 71 72 73 73 73 74 74 75 74 75 74 74 72 71 70 70 70 69 69 68 64 64 64 67 66 67 67 67 67 67 68 67 68 69 69 68 67 67 67 68 70 67 67 66 66 67 68 66 66 66 64 63 64 67 65 64 66 65 64 66 65 64 64 62 59 57 56 59 61 60 61 62 63 62 63 63 63 63 64 65 66 67 68
70 71 71 72 73 74 74 74 74 74 73 74 74 73 73 71 71 70 69 68 67 65 66 67 66 66 64 64 65 66 66 66 67 68 68 69 70 67 66 66 66 68 69 66 66 67 66 66 66 65 65 65 65 65 66 65 63 62 62 61 63 64 62 63 64 63 61 58 56 57 58 60 60 59 60 62 61 61 62 63 64 65 66 66 67
71 72 71 72 73 73 73 73 73 73 73 73 74 73 73 72 69 67 67 64 65 65 65 65 64 64 63 64 65 65 65 66 66 66 67 68 68 68 67 66 66 68 69 65 65 65 65 65 65 65 64 65 66 67 65 64 63 63 63 61 60 60 62 62 63 63 63 62 58 58 59 59 58 58 60 60 60 60 62 62 63 63 64 64 65
72 72 72 72 72 73 73 73 73 73 73 73 73 72 71 69 67 64 63 63 64 64 64 63 62 62 62 64 65 65 65 64 66 65 66 67 67 68 67 66 67 70 69 65 65 65 65 65 65 65 66 65 64 65 66 65 65 64 63 62 62 61 59 58 58 62 62 60 60 59 58 58 59 58 58 60 61 60 61 61 62 62 63 63 64